Stations météo

réclame
Mon MeteoGroup
L9F, Pays-Bas (6207): Température de l'air & dewpoint: 01.04.2020 09:00:00 - 07.04.2020 09:00:00 (CEST)L9F, Pays-Bas (6207): Vitesse du vent & gusts: 01.04.2020 09:00:00 - 07.04.2020 09:00:00 (CEST)L9F, Pays-Bas (6207): Direction du vent: 01.04.2020 09:00:00 - 07.04.2020 09:00:00 (CEST)L9F, Pays-Bas (6207): reduced air pressure: 01.04.2020 09:00:00 - 07.04.2020 09:00:00 (CEST)L9F, Pays-Bas (6207): visibility: 01.04.2020 09:00:00 - 07.04.2020 09:00:00 (CEST)
Date & Time tt [°C] td [°C] ff [km/h] ff [knt] fx [km/h] fx [knt] dd ppp [hPa] vv [km]
07.04.2020 09:00:00 9,3 5,2 11 6 14 8 NNE 1032,3 10
07.04.2020 08:00:00 8,8 5,5 16 9 18 10 N 1031,5 10
07.04.2020 07:00:00 9,2 5,0 14 8 22 12 NNW 1030,6 29
07.04.2020 06:00:00 9,2 5,5 22 12 25 14 NNW 1029,9 10
07.04.2020 05:00:00 8,8 6,5 26 14 25 14 NNW 1029,3 10
07.04.2020 04:00:00 8,7 7,1 26 14 29 16 NNW 1028,5 10
07.04.2020 03:00:00 8,8 7,5 25 14 29 16 WNW 1027,9 13
07.04.2020 02:00:00 9,3 7,6 28 15 25 14 WSW 1027,1 10
07.04.2020 01:00:00 8,8 7,7 24 13 25 14 W 1026,3 10
07.04.2020 00:00:00 8,7 8,1 18 10 22 12 WSW 1025,3 10
06.04.2020 23:00:00 8,9 8,2 22 12 22 12 W 1024,8 10
06.04.2020 22:00:00 8,8 8,5 18 10 22 12 W 1024,2 10
06.04.2020 21:00:00 8,9 8,8 16 9 29 16 W 1023,1 10
06.04.2020 20:00:00 8,6 8,6 28 15 40 21 - 1021,9 5
06.04.2020 19:00:00 8,7 8,3 34 18 36 19 WSW 1021,0 2,5
06.04.2020 18:00:00 9,2 7,5 41 22 40 21 WSW 1020,1 10
06.04.2020 17:00:00 9,7 6,9 46 25 50 27 SW 1019,6 10
06.04.2020 16:00:00 10,2 6,4 52 28 47 25 SW 1019,1 10
06.04.2020 15:00:00 10,6 6,1 50 27 54 29 SW 1018,6 10
06.04.2020 14:00:00 11,6 5,3 54 29 54 29 SSW 1017,7 10
06.04.2020 13:00:00 11,7 5,0 55 30 50 27 SSW 1017,2 10
06.04.2020 12:00:00 11,2 5,9 52 28 50 27 SSW 1016,7 10
06.04.2020 11:00:00 12,0 6,3 46 25 47 25 S 1016,3 10
06.04.2020 10:00:00 11,7 6,3 52 28 50 27 S 1015,9 10
06.04.2020 09:00:00 11,5 6,4 54 29 54 29 S 1015,5 10
06.04.2020 08:00:00 11,2 6,1 55 30 54 29 S 1015,1 10
06.04.2020 07:00:00 9,6 5,1 52 28 54 29 S 1014,7 10
06.04.2020 06:00:00 10,1 4,7 57 31 58 31 S 1014,6 10
06.04.2020 05:00:00 10,4 4,5 65 35 61 33 S 1014,9 10
06.04.2020 04:00:00 10,5 4,4 63 34 58 31 S 1015,1 10
06.04.2020 03:00:00 10,7 4,6 54 29 54 29 S 1015,5 10
06.04.2020 02:00:00 10,9 4,7 55 30 50 27 SSE 1015,8 10
06.04.2020 01:00:00 11,3 4,9 54 29 50 27 SSE 1016,1 10
06.04.2020 00:00:00 11,5 5,1 54 29 50 27 SSE 1016,4 10
05.04.2020 23:00:00 11,6 5,5 48 26 47 25 SE 1016,8 10
05.04.2020 22:00:00 12,3 5,5 44 24 43 23 SE 1017,5 10
05.04.2020 21:00:00 13,7 5,0 41 22 40 21 SSE 1017,8 10
05.04.2020 20:00:00 13,6 4,8 35 19 32 18 SSE 1018,0 10
05.04.2020 19:00:00 13,9 4,9 29 16 36 19 SSE 1018,1 28
05.04.2020 18:00:00 13,9 4,9 39 21 36 19 SSE 1018,6 10
05.04.2020 17:00:00 13,7 5,2 42 23 47 25 SSE 1019,1 10
05.04.2020 16:00:00 14,4 4,7 44 24 40 21 SSE 1019,8 10
05.04.2020 15:00:00 12,5 4,9 46 25 43 23 SSE 1020,6 10
05.04.2020 14:00:00 11,3 5,3 39 21 36 19 SSE 1021,0 10
05.04.2020 13:00:00 10,4 5,0 37 20 36 19 SSE 1021,7 10
05.04.2020 12:00:00 9,1 4,8 41 22 36 19 SSE 1022,3 10
05.04.2020 11:00:00 8,3 4,0 39 21 36 19 SSE 1023,0 10
05.04.2020 10:00:00 7,7 3,9 39 21 36 19 SSE 1023,5 10
05.04.2020 09:00:00 7,5 3,6 34 18 36 19 SSE 1023,6 10
05.04.2020 08:00:00 7,4 3,2 34 18 36 19 SSE 1023,5 10
05.04.2020 07:00:00 7,3 3,0 34 18 32 18 SSE 1023,3 10
05.04.2020 06:00:00 7,6 2,9 34 18 32 18 SSE 1023,4 10
05.04.2020 05:00:00 8,0 3,1 34 18 36 19 SSE 1023,6 10
05.04.2020 04:00:00 8,4 3,3 37 20 36 19 SSE 1023,9 10
05.04.2020 03:00:00 8,4 3,0 39 21 40 21 SSE 1024,2 10
05.04.2020 02:00:00 9,0 3,2 44 24 43 23 SSE 1024,6 10
05.04.2020 01:00:00 9,1 3,6 44 24 43 23 SSE 1024,6 10
05.04.2020 00:00:00 8,9 4,6 35 19 32 18 SSE 1024,7 10
04.04.2020 23:00:00 8,9 4,7 29 16 29 16 SE 1024,6 10
04.04.2020 22:00:00 9,9 -0,1 21 11 22 12 SSE 1024,4 10
04.04.2020 21:00:00 9,8 -0,2 13 7 14 8 SE 1024,3 10
04.04.2020 20:00:00 9,9 1,1 13 7 14 8 SSW 1024,1 10
04.04.2020 19:00:00 9,9 3,4 14 8 25 14 SSW 1024,1 21
04.04.2020 18:00:00 9,1 5,2 29 16 32 18 SW 1024,1 10
04.04.2020 17:00:00 9,3 4,0 37 20 36 19 SW 1024,0 10
04.04.2020 16:00:00 8,9 4,2 46 25 43 23 SW 1024,4 10
04.04.2020 15:00:00 8,4 4,4 42 23 43 23 SSW 1024,4 10
04.04.2020 14:00:00 8,2 4,7 44 24 43 23 SW 1024,2 10
04.04.2020 13:00:00 8,1 4,8 42 23 43 23 SW 1023,8 10
04.04.2020 12:00:00 7,9 5,1 42 23 43 23 SW 1023,6 10
04.04.2020 11:00:00 7,9 5,2 41 22 40 21 SW 1023,4 10
04.04.2020 10:00:00 7,8 5,5 39 21 40 21 SW 1022,7 10
04.04.2020 09:00:00 7,7 5,9 39 21 40 21 SSW 1022,1 10
04.04.2020 08:00:00 7,7 6,1 39 21 40 21 SW 1021,6 10
04.04.2020 07:00:00 7,6 6,1 39 21 40 21 SW 1021,0 10
04.04.2020 06:00:00 7,6 6,0 35 19 36 19 SW 1020,6 10
04.04.2020 05:00:00 7,5 6,2 39 21 40 21 SW 1020,5 10
04.04.2020 04:00:00 7,5 6,2 39 21 40 21 SW 1020,5 10
04.04.2020 03:00:00 7,4 5,6 37 20 36 19 SW 1020,3 10
04.04.2020 02:00:00 7,3 4,4 34 18 32 18 SW 1020,1 10
04.04.2020 01:00:00 7,2 3,7 31 17 32 18 SW 1019,8 10
04.04.2020 00:00:00 7,1 2,8 29 16 29 16 SW 1019,5 10
03.04.2020 23:00:00 6,9 2,4 21 11 22 12 WSW 1019,4 10
03.04.2020 22:00:00 6,7 1,6 18 10 22 12 WSW 1019,5 10
03.04.2020 21:00:00 6,6 0,2 22 12 22 12 W 1019,2 10
03.04.2020 20:00:00 6,6 1,1 21 11 25 14 W 1018,5 10
03.04.2020 19:00:00 6,6 0,6 28 15 29 16 W 1018,1 10
03.04.2020 18:00:00 6,5 -0,8 24 13 32 18 W 1017,7 10
03.04.2020 17:00:00 6,5 -0,1 24 13 29 16 - 1017,3 10
03.04.2020 16:00:00 6,1 0,3 22 12 32 18 WNW 1017,3 30
03.04.2020 15:00:00 5,8 1,2 28 15 36 19 WNW 1016,8 10
03.04.2020 14:00:00 5,7 1,8 18 10 25 14 W 1016,1 10
03.04.2020 13:00:00 6,1 -0,2 22 12 29 16 WNW 1016,0 10
03.04.2020 12:00:00 6,1 -0,7 28 15 29 16 WNW 1015,4 10
03.04.2020 11:00:00 6,2 -0,7 29 16 32 18 WNW 1014,8 10
03.04.2020 10:00:00 6,2 0,8 24 13 29 16 W 1014,0 10
03.04.2020 09:00:00 6,0 0,7 24 13 32 18 W 1013,4 10
03.04.2020 08:00:00 6,5 0,8 22 12 32 18 W 1012,8 10
03.04.2020 07:00:00 6,6 -1,0 31 17 32 18 WNW 1012,3 10
03.04.2020 06:00:00 6,5 1,1 29 16 32 18 WNW 1011,7 10
03.04.2020 05:00:00 6,5 1,1 31 17 40 21 WNW 1011,4 10
03.04.2020 04:00:00 6,6 0,4 35 19 40 21 NW 1011,0 10
03.04.2020 03:00:00 6,7 0,8 34 18 36 19 WNW 1010,9 10
03.04.2020 02:00:00 6,7 1,5 28 15 32 18 WNW 1010,9 10
03.04.2020 01:00:00 6,7 2,3 26 14 25 14 WNW 1010,7 10
03.04.2020 00:00:00 6,8 1,2 29 16 29 16 NW 1010,5 10
02.04.2020 23:00:00 6,8 2,9 26 14 29 16 NW 1010,1 10
02.04.2020 22:00:00 7,0 3,7 26 14 40 21 NW 1009,8 10
02.04.2020 21:00:00 8,0 5,5 41 22 43 23 WNW 1009,0 10
02.04.2020 20:00:00 8,2 6,4 37 20 40 21 W 1008,4 10
02.04.2020 19:00:00 8,4 6,1 48 26 50 27 W 1008,1 10
02.04.2020 18:00:00 8,3 5,9 48 26 50 27 WSW 1007,9 10
02.04.2020 17:00:00 8,1 5,5 50 27 50 27 WSW 1008,4 10
02.04.2020 16:00:00 7,7 5,5 50 27 50 27 WSW 1008,7 10
02.04.2020 15:00:00 7,5 5,4 48 26 50 27 WSW 1009,0 10
02.04.2020 14:00:00 7,4 5,5 50 27 50 27 WSW 1009,5 10
02.04.2020 13:00:00 7,3 5,8 46 25 47 25 WSW 1010,2 10
02.04.2020 12:00:00 7,3 5,9 42 23 47 25 SW 1010,6 9
02.04.2020 11:00:00 7,1 5,9 39 21 40 21 WSW 1011,3 9
02.04.2020 10:00:00 7,1 5,8 34 18 36 19 WSW 1011,8 9
02.04.2020 09:00:00 7,1 5,9 35 19 36 19 WSW 1012,1 9
02.04.2020 08:00:00 7,2 5,5 34 18 32 18 WSW 1012,7 10
02.04.2020 07:00:00 7,1 4,9 25 14 32 18 WSW 1013,0 15
02.04.2020 06:00:00 6,9 4,8 28 15 29 16 WSW 1013,6 10
02.04.2020 05:00:00 6,8 4,5 22 12 25 14 WSW 1014,2 14
02.04.2020 04:00:00 6,9 3,2 22 12 22 12 W 1015,1 10
02.04.2020 03:00:00 6,7 2,9 21 11 25 14 W 1015,7 10
02.04.2020 02:00:00 6,5 3,3 24 13 25 14 WNW 1016,3 10
02.04.2020 01:00:00 6,6 3,6 24 13 25 14 W 1016,9 10
02.04.2020 00:00:00 6,6 4,7 24 13 25 14 W 1017,3 10
01.04.2020 23:00:00 6,4 5,0 22 12 25 14 W 1017,5 10
01.04.2020 22:00:00 6,6 4,2 22 12 25 14 W 1018,0 10
01.04.2020 21:00:00 6,7 3,7 26 14 25 14 W 1018,3 10
01.04.2020 20:00:00 6,9 3,0 24 13 25 14 W 1018,6 10
01.04.2020 19:00:00 6,8 3,0 26 14 29 16 W 1018,9 10
01.04.2020 18:00:00 6,8 3,0 22 12 29 16 W 1019,3 29
01.04.2020 17:00:00 6,9 2,2 29 16 29 16 W 1019,6 10
01.04.2020 16:00:00 6,9 1,9 25 14 29 16 W 1020,3 34
01.04.2020 15:00:00 6,8 2,4 31 17 29 16 W 1020,9 10
01.04.2020 14:00:00 6,8 2,0 31 17 29 16 W 1021,4 10
01.04.2020 13:00:00 6,7 1,6 29 16 29 16 W 1022,0 10
01.04.2020 12:00:00 6,5 2,2 26 14 36 19 W 1022,5 10
01.04.2020 11:00:00 6,6 3,1 26 14 32 18 W 1023,0 10
01.04.2020 10:00:00 6,4 2,9 24 13 36 19 NW 1023,1 10
01.04.2020 09:00:00 6,5 3,7 26 14 29 16 - 1023,4 10

tt = Température de l'air
td = dewpoint
ff = Vitesse du vent
fx = gusts
dd = Direction du vent
ppp = reduced air pressure
vv = visibility

stations d'obs. à proximité